Hourly Data Report for September 06, 2017

All times are specified in Local Standard Time (LST). Add 1 hour to adjust for Daylight Saving Time where and when it is observed.

KUGAARUK CLIMATE
NUNAVUT

68°32'15.060" N
89°47'47.020" W
15.80 m
2303094
71407
NBB

Download Data

Hourly Data (September 2017)
Hourly Data Report for September 6, 2017
Temp Definition
°C
Dew Point Temp Definition
°C
Rel Hum Definition
%
Wind Dir Definition
10's deg

Wind Spd Definition
km/h
Visibility Definition
km
Stn Press Definition
kPa
Hmdx Definition


Wind Chill Definition


Weather Definition


TIME
00:00 -0.1 -3.1 80 25 4   101.70   -1 LegendNANA
01:00 0.2 -3.5 76 23 12   101.68     LegendNANA
02:00 0.3 -2.3 83 23 15   101.68     LegendNANA
03:00 0.5 -2.4 81 25 18   101.68     LegendNANA
04:00 0.4 -2.4 81 22 17   101.67     LegendNANA
05:00 0.7 -2.1 81 22 16   101.67     LegendNANA
06:00 1.1 -2.0 80 22 17   101.66     LegendNANA
07:00 1.7 -2.0 77 23 15   101.67     LegendNANA
08:00 2.1 -3.0 69 28 17   101.66     LegendNANA
09:00 2.4 -3.5 65 28 15   101.65     LegendNANA
10:00 2.6 -3.6 64 26 15   101.64     LegendNANA
11:00 3.1 -2.8 65 24 16   101.65     LegendNANA
12:00 3.4 -3.2 62 23 14   101.62     LegendNANA
13:00 4.1 -2.6 61 24 15   101.61     LegendNANA
14:00 4.7 -2.7 59 25 11   101.59     LegendNANA
15:00 4.3 -2.9 59 24 13   101.57     LegendNANA
16:00 4.5 -1.7 64 25 11   101.56     LegendNANA
17:00 3.5 -1.8 68 22 11   101.55     LegendNANA
18:00 3.0 -1.8 71 21 9   101.52     LegendNANA
19:00 2.7 -2.2 70 18 16   101.48     LegendNANA
20:00 2.3 -2.5 70 19 19   101.44     LegendNANA
21:00 1.8 -2.6 72 18 18   101.39     LegendNANA
22:00 2.0 -2.8 71 18 19   101.38     LegendNANA
23:00 1.9 -3.0 70 17 23   101.30     LegendNANA

Notes on Data Quality.

Legend

  • E = Estimated
  • M = Missing
  • NA = Not Available
  • ‡ = Partner data that is not subject to review by the National Climate Archives
Date modified: